DMSP 5D-2 F11 DEB, 28300

Orbit data source: Space-Track

DMSP 5D-2 F11 DEB, 28300 is space debris in SSO originally from a launch on Thu, 28 Nov 1991 UTC launched from the Air Force Western Test Range (AFWTR). Debris objects in space refer to the collection of defunct objects orbiting the Earth. Examples of debris include non-operational satellites, rocket bodies, and fragments generated from explosions, collisions, or faulty payload assembly.

Loading next visibility...
Identifier
28300, 1991-082M
Orbit
SSO
Country
Flag of USUS
Related business
Manufacturer
Unknown
Mission
Spacecraft
Bus & Motor
Unknown
Mass
Unknown
Launch date (UTC)
1991-11-28 (35 years ago)
Launch vehicle
Unknown
Launch site
Air Force Western Test Range (AFWTR)
Object type
Payload
Rocket body
Debris
Shape & HBR
Unknown shape, 0.1 m
Radar Cross Section
Medium (>0.1 m² and <1 m²)

Expand to show TLE details & history
Last TLE update: 9 hours ago

TLE from 9 hours ago
0 DMSP 5D-2 F11 DEB
1 28300U 91082M   26264.12294823  .00001673  00000-0  51244-3 0  9990
2 28300  98.5273 316.6481 0006282 332.8820  54.8564 14.43045053166219
Epoch: 2026-09-21T02:57Z
TLE epoch observation values (Epoch: 2026-09-21T02:57:02.727Z)
Latitude
27.50534°
Longitude
-92.07426°
Altitude
749.275 km
Speed
7.484 km/s
True Right ascension
20h 48m 46s
True Declination
27° 21' 52"
Sunlit
Object was in full shadow at epoch
Visualization orbit readout
Latitude
Unknown
Longitude
Unknown
Altitude
Unknown
Speed
Unknown
Apparent Right ascension
Unknown
Apparent Declination
Unknown
Sunlit
N/A
Visualization observer readout
Local Sidereal Time
04:58:18
Azimuth
Unknown
Elevation
Unknown
Doppler factor
Unknown
Orbital elements
Apogee altitude
750.05 km
Perigee altitude
741.099 km
Semi-major axis
7,123.711 km
Eccentricity
0.00063
Inclination
98.5273°
RAAN
316.6481°
Arg. of periapsis
332.882°
True anomaly
54.91529°
Mean anomaly
54.8564°
Eccentric anomaly
54.88584°
Mean motion
3.6098 °/min
Orbital period
99.73 mins
BSTAR
0.00051244
Loading maneuver chart data...
Computing Atmospheric mass density...

Documentation

Showing up to 5 results
|